Year,Month,Day,Hour,Minute,Value (Times are PST for temperature in C)
2009,10,15,00,00,10.20
2009,10,15,00,01,10.20
2009,10,15,00,02,10.20
2009,10,15,00,03,10.20
2009,10,15,00,04,10.20
2009,10,15,00,05,10.20
2009,10,15,00,06,10.20
2009,10,15,00,07,10.20
2009,10,15,00,09,10.20
2009,10,15,00,10,10.20
2009,10,15,00,12,10.20
2009,10,15,00,13,10.20
2009,10,15,00,14,10.20
2009,10,15,00,15,10.20
2009,10,15,00,16,10.20
2009,10,15,00,17,10.20
2009,10,15,00,18,10.20
2009,10,15,00,20,10.30
2009,10,15,00,21,10.30
2009,10,15,00,22,10.30
2009,10,15,00,24,10.30
2009,10,15,00,25,10.30
2009,10,15,00,26,10.40
2009,10,15,00,28,10.40
2009,10,15,00,29,10.40
2009,10,15,00,30,10.40
2009,10,15,00,31,10.40
2009,10,15,00,32,10.40
2009,10,15,00,33,10.40
2009,10,15,00,36,10.40
2009,10,15,00,37,10.40
2009,10,15,00,39,10.50
2009,10,15,00,40,10.60
2009,10,15,00,41,10.60
2009,10,15,00,43,10.60
2009,10,15,00,44,10.60
2009,10,15,00,45,10.60
2009,10,15,00,46,10.60
2009,10,15,00,48,10.60
2009,10,15,00,51,10.60
2009,10,15,00,52,10.70
2009,10,15,00,53,10.70
2009,10,15,00,55,10.70
2009,10,15,00,56,10.70
2009,10,15,00,58,10.70
2009,10,15,00,59,10.70
2009,10,15,01,00,10.70
2009,10,15,01,01,10.70
2009,10,15,01,03,10.70
2009,10,15,01,04,10.80
2009,10,15,01,05,10.80
2009,10,15,01,06,10.80
2009,10,15,01,07,10.80
2009,10,15,01,08,10.80
2009,10,15,01,09,10.80
2009,10,15,01,10,10.80
2009,10,15,01,11,10.80
2009,10,15,01,12,10.90
2009,10,15,01,13,10.90
2009,10,15,01,14,10.90
2009,10,15,01,15,10.90
2009,10,15,01,16,10.90
2009,10,15,01,18,10.90
2009,10,15,01,20,10.90
2009,10,15,01,21,10.90
2009,10,15,01,23,10.90
2009,10,15,01,24,10.90
2009,10,15,01,25,10.90
2009,10,15,01,28,10.90
2009,10,15,01,29,10.90
2009,10,15,01,32,10.90
2009,10,15,01,33,10.90
2009,10,15,01,34,10.90
2009,10,15,01,35,10.90
2009,10,15,01,36,10.90
2009,10,15,01,37,10.90
2009,10,15,01,38,10.90
2009,10,15,01,39,10.90
2009,10,15,01,43,10.90
2009,10,15,01,44,10.90
2009,10,15,01,45,10.90
2009,10,15,01,46,10.90
2009,10,15,01,47,10.90
2009,10,15,01,48,10.90
2009,10,15,01,50,10.90
2009,10,15,01,51,10.90
2009,10,15,01,52,10.90
2009,10,15,01,53,10.90
2009,10,15,01,54,10.90
2009,10,15,01,55,10.90
2009,10,15,01,56,10.90
2009,10,15,01,57,10.90
2009,10,15,01,58,10.90
2009,10,15,01,59,10.90
2009,10,15,02,00,10.90
2009,10,15,02,01,10.90
2009,10,15,02,02,10.90
2009,10,15,02,03,10.90
2009,10,15,02,04,10.90
2009,10,15,02,05,10.90
2009,10,15,02,06,10.90
2009,10,15,02,07,10.90
2009,10,15,02,08,10.90
2009,10,15,02,09,10.90
2009,10,15,02,10,10.90
2009,10,15,02,11,10.90
2009,10,15,02,12,10.90
2009,10,15,02,13,10.90
2009,10,15,02,14,10.90
2009,10,15,02,15,10.90
2009,10,15,02,16,10.90
2009,10,15,02,17,10.90
2009,10,15,02,18,10.90
2009,10,15,02,19,10.90
2009,10,15,02,20,10.90
2009,10,15,02,21,10.90
2009,10,15,02,23,10.90
2009,10,15,02,25,10.90
2009,10,15,02,26,10.90
2009,10,15,02,29,10.90
2009,10,15,02,30,10.90
2009,10,15,02,32,10.90
2009,10,15,02,33,10.90
2009,10,15,02,34,10.90
2009,10,15,02,35,10.90
2009,10,15,02,36,10.90
2009,10,15,02,37,10.90
2009,10,15,02,38,10.90
2009,10,15,02,40,10.90
2009,10,15,02,41,10.90
2009,10,15,02,44,10.80
2009,10,15,02,45,10.80
2009,10,15,02,49,10.80
2009,10,15,02,51,10.80
2009,10,15,02,52,10.80
2009,10,15,02,53,10.70
2009,10,15,02,54,10.70
2009,10,15,02,56,10.70
2009,10,15,02,57,10.70
2009,10,15,02,58,10.70
2009,10,15,03,00,10.70
2009,10,15,03,01,10.70
2009,10,15,03,02,10.70
2009,10,15,03,03,10.70
2009,10,15,03,04,10.70
2009,10,15,03,06,10.70
2009,10,15,03,07,10.70
2009,10,15,03,08,10.70
2009,10,15,03,09,10.70
2009,10,15,03,10,10.70
2009,10,15,03,11,10.80
2009,10,15,03,12,10.80
2009,10,15,03,13,10.80
2009,10,15,03,15,10.80
2009,10,15,03,16,10.80
2009,10,15,03,17,10.80
2009,10,15,03,18,10.80
2009,10,15,03,21,10.80
2009,10,15,03,22,10.80
2009,10,15,03,23,10.80
2009,10,15,03,26,10.70
2009,10,15,03,27,10.70
2009,10,15,03,28,10.70
2009,10,15,03,30,10.70
2009,10,15,03,31,10.70
2009,10,15,03,32,10.70
2009,10,15,03,34,10.70
2009,10,15,03,35,10.80
2009,10,15,03,36,10.70
2009,10,15,03,37,10.70
2009,10,15,03,40,10.70
2009,10,15,03,41,10.70
2009,10,15,03,42,10.70
2009,10,15,03,43,10.80
2009,10,15,03,44,10.70
2009,10,15,03,45,10.70
2009,10,15,03,46,10.70
2009,10,15,03,47,10.70
2009,10,15,03,48,10.70
2009,10,15,03,49,10.70
2009,10,15,03,50,10.70
2009,10,15,03,51,10.70
2009,10,15,03,52,10.70
2009,10,15,03,53,10.70
2009,10,15,03,54,10.70
2009,10,15,03,56,10.70
2009,10,15,03,57,10.70
2009,10,15,03,58,10.70
2009,10,15,03,59,10.70
2009,10,15,04,00,10.70
2009,10,15,04,01,10.70
2009,10,15,04,02,10.70
2009,10,15,04,03,10.60
2009,10,15,04,04,10.60
2009,10,15,04,05,10.60
2009,10,15,04,06,10.60
2009,10,15,04,07,10.60
2009,10,15,04,08,10.60
2009,10,15,04,09,10.60
2009,10,15,04,10,10.70
2009,10,15,04,11,10.70
2009,10,15,04,12,10.70
2009,10,15,04,13,10.70
2009,10,15,04,14,10.70
2009,10,15,04,15,10.70
2009,10,15,04,16,10.70
2009,10,15,04,17,10.70
2009,10,15,04,18,10.70
2009,10,15,04,19,10.70
2009,10,15,04,20,10.70
2009,10,15,04,22,10.70
2009,10,15,04,23,10.80
2009,10,15,04,25,10.80
2009,10,15,04,26,10.80
2009,10,15,04,27,10.80
2009,10,15,04,28,10.80
2009,10,15,04,29,10.80
2009,10,15,04,30,10.80
2009,10,15,04,31,10.80
2009,10,15,04,32,10.80
2009,10,15,04,33,10.70
2009,10,15,04,34,10.70
2009,10,15,04,36,10.70
2009,10,15,04,38,10.70
2009,10,15,04,39,10.70
2009,10,15,04,41,10.60
2009,10,15,04,42,10.60
2009,10,15,04,43,10.60
2009,10,15,04,44,10.60
2009,10,15,04,45,10.60
2009,10,15,04,46,10.60
2009,10,15,04,48,10.60
2009,10,15,04,49,10.40
2009,10,15,04,51,10.40
2009,10,15,04,52,10.40
2009,10,15,04,54,10.40
2009,10,15,04,55,10.40
2009,10,15,04,57,10.30
2009,10,15,04,58,10.30
2009,10,15,05,00,10.30
2009,10,15,05,01,10.30
2009,10,15,05,02,10.30
2009,10,15,05,04,10.30
2009,10,15,05,05,10.20
2009,10,15,05,07,10.20
2009,10,15,05,08,10.20
2009,10,15,05,09,10.20
2009,10,15,05,10,10.20
2009,10,15,05,11,10.20
2009,10,15,05,13,10.10
2009,10,15,05,14,10.10
2009,10,15,05,15,10.10
2009,10,15,05,16,10.10
2009,10,15,05,17,10.10
2009,10,15,05,18,10.10
2009,10,15,05,19,10.10
2009,10,15,05,20,10.10
2009,10,15,05,21,10.10
2009,10,15,05,23,10.10
2009,10,15,05,24,10.10
2009,10,15,05,25,10.10
2009,10,15,05,26,10.10
2009,10,15,05,28,10.10
2009,10,15,05,29,10.10
2009,10,15,05,30,10.10
2009,10,15,05,32,10.10
2009,10,15,05,33,10.10
2009,10,15,05,35,10.10
2009,10,15,05,36,10.10
2009,10,15,05,37,10.20
2009,10,15,05,38,10.20
2009,10,15,05,40,10.60
2009,10,15,05,41,10.60
2009,10,15,05,42,10.60
2009,10,15,05,43,10.80
2009,10,15,05,44,10.80
2009,10,15,05,45,10.90
2009,10,15,05,46,10.90
2009,10,15,05,48,11.10
2009,10,15,05,49,11.20
2009,10,15,05,51,11.30
2009,10,15,05,52,11.30
2009,10,15,05,53,11.30
2009,10,15,05,54,11.40
2009,10,15,05,55,11.40
2009,10,15,05,56,11.40
2009,10,15,05,57,11.40
2009,10,15,05,58,11.40
2009,10,15,05,59,11.40
2009,10,15,06,00,11.30
2009,10,15,06,01,11.30
2009,10,15,06,02,11.40
2009,10,15,06,03,11.40
2009,10,15,06,04,11.40
2009,10,15,06,05,11.40
2009,10,15,06,06,11.40
2009,10,15,06,07,11.40
2009,10,15,06,10,11.40
2009,10,15,06,11,11.40
2009,10,15,06,12,11.40
2009,10,15,06,13,11.40
2009,10,15,06,14,11.30
2009,10,15,06,15,11.20
2009,10,15,06,16,11.20
2009,10,15,06,17,11.10
2009,10,15,06,18,11.10
2009,10,15,06,19,11.10
2009,10,15,06,20,10.90
2009,10,15,06,21,10.90
2009,10,15,06,22,10.90
2009,10,15,06,23,10.70
2009,10,15,06,24,10.60
2009,10,15,06,25,10.60
2009,10,15,06,26,10.60
2009,10,15,06,27,10.60
2009,10,15,06,28,10.60
2009,10,15,06,29,10.60
2009,10,15,06,30,10.60
2009,10,15,06,31,10.50
2009,10,15,06,32,10.40
2009,10,15,06,34,10.40
2009,10,15,06,35,10.40
2009,10,15,06,36,10.40
2009,10,15,06,37,10.50
2009,10,15,06,38,10.40
2009,10,15,06,39,10.40
2009,10,15,06,40,10.40
2009,10,15,06,41,10.40
2009,10,15,06,42,10.40
2009,10,15,06,43,10.40
2009,10,15,06,44,10.30
2009,10,15,06,45,10.20
2009,10,15,06,46,10.20
2009,10,15,06,47,10.20
2009,10,15,06,48,10.20
2009,10,15,06,49,10.20
2009,10,15,06,50,10.10
2009,10,15,06,51,10.10
2009,10,15,06,52,10.10
2009,10,15,06,53,10.10
2009,10,15,06,54,10.10
2009,10,15,06,56,10.00
2009,10,15,06,57,9.90
2009,10,15,06,59,9.90
2009,10,15,07,00,9.90
2009,10,15,07,01,9.90
2009,10,15,07,02,9.90
2009,10,15,07,03,9.90
2009,10,15,07,04,9.90
2009,10,15,07,05,9.90
2009,10,15,07,06,9.90
2009,10,15,07,07,9.90
2009,10,15,07,08,9.90
2009,10,15,07,09,9.90
2009,10,15,07,10,9.90
2009,10,15,07,11,9.90
2009,10,15,07,12,9.90
2009,10,15,07,13,9.90
2009,10,15,07,14,9.90
2009,10,15,07,15,9.90
2009,10,15,07,16,9.90
2009,10,15,07,17,9.90
2009,10,15,07,18,9.90
2009,10,15,07,21,9.90
2009,10,15,07,22,9.90
2009,10,15,07,23,9.90
2009,10,15,07,24,9.90
2009,10,15,07,25,9.90
2009,10,15,07,26,9.90
2009,10,15,07,28,9.90
2009,10,15,07,30,10.10
2009,10,15,07,31,10.10
2009,10,15,07,32,10.10
2009,10,15,07,33,10.10
2009,10,15,07,34,10.10
2009,10,15,07,35,10.10
2009,10,15,07,36,10.10
2009,10,15,07,37,10.10
2009,10,15,07,38,10.10
2009,10,15,07,39,10.10
2009,10,15,07,40,10.10
2009,10,15,07,41,10.10
2009,10,15,07,43,10.10
2009,10,15,07,44,10.20
2009,10,15,07,45,10.20
2009,10,15,07,46,10.20
2009,10,15,07,47,10.20
2009,10,15,07,49,10.20
2009,10,15,07,50,10.20
2009,10,15,07,51,10.20
2009,10,15,07,52,10.20
2009,10,15,07,53,10.30
2009,10,15,07,54,10.30
2009,10,15,07,55,10.30
2009,10,15,07,56,10.30
2009,10,15,07,57,10.30
2009,10,15,07,59,10.30
2009,10,15,08,00,10.40
2009,10,15,08,01,10.40
2009,10,15,08,02,10.40
2009,10,15,08,03,10.40
2009,10,15,08,04,10.40
2009,10,15,08,05,10.40
2009,10,15,08,06,10.40
2009,10,15,08,07,10.40
2009,10,15,08,08,10.40
2009,10,15,08,09,10.40
2009,10,15,08,10,10.40
2009,10,15,08,11,10.40
2009,10,15,08,13,10.40
2009,10,15,08,14,10.40
2009,10,15,08,15,10.40
2009,10,15,08,17,10.40
2009,10,15,08,18,10.40
2009,10,15,08,19,10.40
2009,10,15,08,20,10.40
2009,10,15,08,21,10.40
2009,10,15,08,23,10.40
2009,10,15,08,24,10.40
2009,10,15,08,25,10.40
2009,10,15,08,26,10.40
2009,10,15,08,27,10.60
2009,10,15,08,28,10.60
2009,10,15,08,29,10.60
2009,10,15,08,30,10.60
2009,10,15,08,31,10.60
2009,10,15,08,32,10.60
2009,10,15,08,33,10.60
2009,10,15,08,34,10.60
2009,10,15,08,35,10.60
2009,10,15,08,36,10.60
2009,10,15,08,37,10.60
2009,10,15,08,38,10.60
2009,10,15,08,39,10.70
2009,10,15,08,40,10.70
2009,10,15,08,41,10.70
2009,10,15,08,42,10.70
2009,10,15,08,43,10.70
2009,10,15,08,44,10.70
2009,10,15,08,45,10.70
2009,10,15,08,46,10.80
2009,10,15,08,47,10.80
2009,10,15,08,49,10.80
2009,10,15,08,50,10.80
2009,10,15,08,51,10.90
2009,10,15,08,52,10.90
2009,10,15,08,53,10.90
2009,10,15,08,54,10.90
2009,10,15,08,55,10.90
2009,10,15,08,56,10.90
2009,10,15,08,57,10.90
2009,10,15,08,59,10.90
2009,10,15,09,00,10.90
2009,10,15,09,01,10.90
2009,10,15,09,02,10.90
2009,10,15,09,04,11.10
2009,10,15,09,05,11.10
2009,10,15,09,07,11.10
2009,10,15,09,09,11.10
2009,10,15,09,10,11.10
2009,10,15,09,12,11.20
2009,10,15,09,13,11.20
2009,10,15,09,14,11.20
2009,10,15,09,15,11.20
2009,10,15,09,16,11.20
2009,10,15,09,18,11.20
2009,10,15,09,19,11.20
2009,10,15,09,21,11.30
2009,10,15,09,22,11.30
2009,10,15,09,24,11.40
2009,10,15,09,25,11.50
2009,10,15,09,27,11.60
2009,10,15,09,28,11.70
2009,10,15,09,29,11.70
2009,10,15,09,30,11.80
2009,10,15,09,31,11.80
2009,10,15,09,33,11.80
2009,10,15,09,34,11.90
2009,10,15,09,36,12.00
2009,10,15,09,37,12.10
2009,10,15,09,39,12.30
2009,10,15,09,40,12.40
2009,10,15,09,42,12.60
2009,10,15,09,43,12.60
2009,10,15,09,45,12.80
2009,10,15,09,46,12.80
2009,10,15,09,48,12.90
2009,10,15,09,50,13.20
2009,10,15,09,51,13.30
2009,10,15,09,53,13.30
2009,10,15,09,54,13.30
2009,10,15,09,55,13.50
2009,10,15,09,56,13.50
2009,10,15,09,59,13.70
2009,10,15,10,00,13.70
2009,10,15,10,01,13.70
2009,10,15,10,02,13.80
2009,10,15,10,04,13.90
2009,10,15,10,05,13.80
2009,10,15,10,06,13.70
2009,10,15,10,07,13.70
2009,10,15,10,08,13.70
2009,10,15,10,10,13.70
2009,10,15,10,11,13.70
2009,10,15,10,13,13.70
2009,10,15,10,14,13.70
2009,10,15,10,15,13.70
2009,10,15,10,16,13.60
2009,10,15,10,17,13.60
2009,10,15,10,18,13.60
2009,10,15,10,19,13.60
2009,10,15,10,20,13.50
2009,10,15,10,22,13.50
2009,10,15,10,23,13.60
2009,10,15,10,25,13.70
2009,10,15,10,26,13.70
2009,10,15,10,28,13.70
2009,10,15,10,29,13.70
2009,10,15,10,30,13.70
2009,10,15,10,31,13.70
2009,10,15,10,32,13.70
2009,10,15,10,33,13.70
2009,10,15,10,34,13.70
2009,10,15,10,35,13.70
2009,10,15,10,36,13.80
2009,10,15,10,37,13.80
2009,10,15,10,38,13.90
2009,10,15,10,39,13.90
2009,10,15,10,40,14.00
2009,10,15,10,41,14.00
2009,10,15,10,42,14.00
2009,10,15,10,43,14.00
2009,10,15,10,44,13.90
2009,10,15,10,45,13.80
2009,10,15,10,46,13.80
2009,10,15,10,47,13.70
2009,10,15,10,48,13.70
2009,10,15,10,49,13.70
2009,10,15,10,50,13.70
2009,10,15,10,51,13.70
2009,10,15,10,52,13.70
2009,10,15,10,53,13.80
2009,10,15,10,54,13.80
2009,10,15,10,55,13.80
2009,10,15,10,56,13.80
2009,10,15,10,58,13.80
2009,10,15,10,59,13.80
2009,10,15,11,00,13.80
2009,10,15,11,01,13.70
2009,10,15,11,02,13.70
2009,10,15,11,03,13.70
2009,10,15,11,05,13.70
2009,10,15,11,08,13.60
2009,10,15,11,09,13.60
2009,10,15,11,10,13.60
2009,10,15,11,11,13.70
2009,10,15,11,12,13.70
2009,10,15,11,13,13.70
2009,10,15,11,14,13.80
2009,10,15,11,15,13.90
2009,10,15,11,16,13.90
2009,10,15,11,17,13.90
2009,10,15,11,18,13.90
2009,10,15,11,19,13.90
2009,10,15,11,20,13.90
2009,10,15,11,22,13.90
2009,10,15,11,23,13.90
2009,10,15,11,24,13.90
2009,10,15,11,25,13.80
2009,10,15,11,26,13.80
2009,10,15,11,27,13.70
2009,10,15,11,28,13.70
2009,10,15,11,29,13.70
2009,10,15,11,30,13.70
2009,10,15,11,31,13.70
2009,10,15,11,32,13.70
2009,10,15,11,33,13.80
2009,10,15,11,35,13.90
2009,10,15,11,36,14.00
2009,10,15,11,37,14.00
2009,10,15,11,38,14.10
2009,10,15,11,39,14.10
2009,10,15,11,40,14.20
2009,10,15,11,41,14.20
2009,10,15,11,42,14.20
2009,10,15,11,43,14.20
2009,10,15,11,45,14.20
2009,10,15,11,46,14.20
2009,10,15,11,47,14.20
2009,10,15,11,51,14.20
2009,10,15,11,52,14.30
2009,10,15,11,53,14.30
2009,10,15,11,54,14.40
2009,10,15,11,55,14.20
2009,10,15,11,56,14.20
2009,10,15,11,57,14.20
2009,10,15,11,58,14.20
2009,10,15,11,59,14.20
2009,10,15,12,00,14.20
2009,10,15,12,01,14.20
2009,10,15,12,02,14.20
2009,10,15,12,03,14.20
2009,10,15,12,04,14.20
2009,10,15,12,05,14.20
2009,10,15,12,06,14.20
2009,10,15,12,07,14.30
2009,10,15,12,08,14.30
2009,10,15,12,09,14.40
2009,10,15,12,10,14.30
2009,10,15,12,11,14.30
2009,10,15,12,12,14.30
2009,10,15,12,13,14.40
2009,10,15,12,14,14.40
2009,10,15,12,15,14.50
2009,10,15,12,16,14.50
2009,10,15,12,17,14.60
2009,10,15,12,18,14.50
2009,10,15,12,19,14.50
2009,10,15,12,20,14.60
2009,10,15,12,21,14.60
2009,10,15,12,22,14.70
2009,10,15,12,23,14.80
2009,10,15,12,24,14.80
2009,10,15,12,25,15.00
2009,10,15,12,26,15.00
2009,10,15,12,27,15.10
2009,10,15,12,28,15.10
2009,10,15,12,29,15.20
2009,10,15,12,32,15.30
2009,10,15,12,33,15.30
2009,10,15,12,34,15.20
2009,10,15,12,35,15.20
2009,10,15,12,36,15.30
2009,10,15,12,37,15.30
2009,10,15,12,38,15.30
2009,10,15,12,39,15.40
2009,10,15,12,40,15.50
2009,10,15,12,43,15.80
2009,10,15,12,44,15.80
2009,10,15,12,45,15.80
2009,10,15,12,46,15.90
2009,10,15,12,47,15.90
2009,10,15,12,48,15.90
2009,10,15,12,49,15.90
2009,10,15,12,50,16.10
2009,10,15,12,51,16.10
2009,10,15,12,52,16.10
2009,10,15,12,53,16.10
2009,10,15,12,54,16.20
2009,10,15,12,55,16.20
2009,10,15,12,56,16.30
2009,10,15,12,57,16.30
2009,10,15,12,58,16.30
2009,10,15,12,59,16.40
2009,10,15,13,00,16.40
2009,10,15,13,01,16.40
2009,10,15,13,02,16.40
2009,10,15,13,03,16.40
2009,10,15,13,04,16.40
2009,10,15,13,05,16.40
2009,10,15,13,06,16.40
2009,10,15,13,07,16.40
2009,10,15,13,08,16.30
2009,10,15,13,09,16.30
2009,10,15,13,10,16.30
2009,10,15,13,11,16.20
2009,10,15,13,12,16.20
2009,10,15,13,13,16.20
2009,10,15,13,14,16.20
2009,10,15,13,15,16.10
2009,10,15,13,16,16.10
2009,10,15,13,17,16.10
2009,10,15,13,18,16.10
2009,10,15,13,19,16.10
2009,10,15,13,20,16.10
2009,10,15,13,21,16.10
2009,10,15,13,22,16.10
2009,10,15,13,23,16.10
2009,10,15,13,24,16.20
2009,10,15,13,25,16.20
2009,10,15,13,26,16.30
2009,10,15,13,27,16.30
2009,10,15,13,28,16.30
2009,10,15,13,29,16.30
2009,10,15,13,30,16.30
2009,10,15,13,31,16.30
2009,10,15,13,32,16.40
2009,10,15,13,33,16.40
2009,10,15,13,34,16.40
2009,10,15,13,35,16.30
2009,10,15,13,36,16.30
2009,10,15,13,37,16.30
2009,10,15,13,38,16.20
2009,10,15,13,39,16.20
2009,10,15,13,40,16.20
2009,10,15,13,41,16.20
2009,10,15,13,42,16.10
2009,10,15,13,43,16.10
2009,10,15,13,44,15.90
2009,10,15,13,45,15.80
2009,10,15,13,47,15.90
2009,10,15,13,48,15.90
2009,10,15,13,49,16.10
2009,10,15,13,50,16.10
2009,10,15,13,51,16.10
2009,10,15,13,52,16.10
2009,10,15,13,53,16.10
2009,10,15,13,54,16.20
2009,10,15,13,55,16.20
2009,10,15,13,56,16.20
2009,10,15,13,57,16.20
2009,10,15,13,58,16.20
2009,10,15,13,59,16.30
2009,10,15,14,00,16.30
2009,10,15,14,01,16.30
2009,10,15,14,02,16.30
2009,10,15,14,03,16.30
2009,10,15,14,04,16.40
2009,10,15,14,05,16.30
2009,10,15,14,06,16.30
2009,10,15,14,07,16.40
2009,10,15,14,08,16.40
2009,10,15,14,09,16.40
2009,10,15,14,10,16.40
2009,10,15,14,11,16.40
2009,10,15,14,12,16.30
2009,10,15,14,13,16.10
2009,10,15,14,14,16.10
2009,10,15,14,15,16.00
2009,10,15,14,16,15.90
2009,10,15,14,17,16.10
2009,10,15,14,18,16.10
2009,10,15,14,19,16.10
2009,10,15,14,20,16.10
2009,10,15,14,21,16.10
2009,10,15,14,22,16.10
2009,10,15,14,23,16.10
2009,10,15,14,24,16.10
2009,10,15,14,25,16.10
2009,10,15,14,26,16.10
2009,10,15,14,27,16.10
2009,10,15,14,28,16.10
2009,10,15,14,29,16.10
2009,10,15,14,30,16.10
2009,10,15,14,31,16.10
2009,10,15,14,32,16.10
2009,10,15,14,33,16.10
2009,10,15,14,34,16.10
2009,10,15,14,35,16.10
2009,10,15,14,36,16.10
2009,10,15,14,37,16.10
2009,10,15,14,38,16.10
2009,10,15,14,39,16.10
2009,10,15,14,40,16.10
2009,10,15,14,41,15.90
2009,10,15,14,42,15.90
2009,10,15,14,43,15.70
2009,10,15,14,44,15.70
2009,10,15,14,45,15.70
2009,10,15,14,46,15.70
2009,10,15,14,47,15.80
2009,10,15,14,48,15.80
2009,10,15,14,49,15.80
2009,10,15,14,50,15.80
2009,10,15,14,51,15.80
2009,10,15,14,52,15.80
2009,10,15,14,53,15.70
2009,10,15,14,54,15.70
2009,10,15,14,55,15.70
2009,10,15,14,56,15.70
2009,10,15,14,57,15.80
2009,10,15,14,58,15.80
2009,10,15,14,59,15.80
2009,10,15,15,00,15.80
2009,10,15,15,01,15.70
2009,10,15,15,02,15.60
2009,10,15,15,03,15.60
2009,10,15,15,04,15.60
2009,10,15,15,05,15.60
2009,10,15,15,06,15.60
2009,10,15,15,07,15.60
2009,10,15,15,08,15.60
2009,10,15,15,09,15.60
2009,10,15,15,10,15.60
2009,10,15,15,11,15.50
2009,10,15,15,12,15.50
2009,10,15,15,13,15.50
2009,10,15,15,14,15.50
2009,10,15,15,15,15.50
2009,10,15,15,16,15.60
2009,10,15,15,17,15.50
2009,10,15,15,18,15.60
2009,10,15,15,19,15.60
2009,10,15,15,20,15.50
2009,10,15,15,21,15.50
2009,10,15,15,22,15.60
2009,10,15,15,23,15.60
2009,10,15,15,24,15.60
2009,10,15,15,25,15.60
2009,10,15,15,26,15.70
2009,10,15,15,27,15.70
2009,10,15,15,28,15.80
2009,10,15,15,29,15.80
2009,10,15,15,30,15.80
2009,10,15,15,31,15.80
2009,10,15,15,32,15.90
2009,10,15,15,33,15.90
2009,10,15,15,34,15.90
2009,10,15,15,35,15.90
2009,10,15,15,36,15.90
2009,10,15,15,37,15.90
2009,10,15,15,38,15.80
2009,10,15,15,39,15.80
2009,10,15,15,40,15.80
2009,10,15,15,41,15.80
2009,10,15,15,42,15.60
2009,10,15,15,43,15.60
2009,10,15,15,44,15.50
2009,10,15,15,45,15.50
2009,10,15,15,46,15.60
2009,10,15,15,47,15.70
2009,10,15,15,48,15.70
2009,10,15,15,49,15.70
2009,10,15,15,50,15.80
2009,10,15,15,51,15.80
2009,10,15,15,52,15.70
2009,10,15,15,53,15.70
2009,10,15,15,54,15.70
2009,10,15,15,55,15.70
2009,10,15,15,56,15.80
2009,10,15,15,57,15.80
2009,10,15,15,58,15.80
2009,10,15,15,59,15.80
2009,10,15,16,00,15.70
2009,10,15,16,01,15.60
2009,10,15,16,02,15.60
2009,10,15,16,03,15.60
2009,10,15,16,04,15.60
2009,10,15,16,05,15.60
2009,10,15,16,06,15.60
2009,10,15,16,07,15.60
2009,10,15,16,08,15.60
2009,10,15,16,09,15.50
2009,10,15,16,10,15.50
2009,10,15,16,11,15.50
2009,10,15,16,12,15.50
2009,10,15,16,13,15.50
2009,10,15,16,14,15.50
2009,10,15,16,15,15.50
2009,10,15,16,16,15.50
2009,10,15,16,17,15.50
2009,10,15,16,18,15.50
2009,10,15,16,19,15.50
2009,10,15,16,20,15.60
2009,10,15,16,21,15.60
2009,10,15,16,22,15.60
2009,10,15,16,23,15.60
2009,10,15,16,24,15.50
2009,10,15,16,25,15.60
2009,10,15,16,26,15.50
2009,10,15,16,27,15.50
2009,10,15,16,28,15.50
2009,10,15,16,29,15.60
2009,10,15,16,30,15.60
2009,10,15,16,31,15.60
2009,10,15,16,32,15.70
2009,10,15,16,33,15.70
2009,10,15,16,34,15.70
2009,10,15,16,35,15.60
2009,10,15,16,36,15.50
2009,10,15,16,37,15.50
2009,10,15,16,38,15.50
2009,10,15,16,39,15.50
2009,10,15,16,40,15.50
2009,10,15,16,41,15.50
2009,10,15,16,42,15.40
2009,10,15,16,43,15.40
2009,10,15,16,44,15.40
2009,10,15,16,45,15.50
2009,10,15,16,46,15.50
2009,10,15,16,47,15.50
2009,10,15,16,48,15.50
2009,10,15,16,51,15.50
2009,10,15,16,52,15.40
2009,10,15,16,53,15.50
2009,10,15,16,55,15.50
2009,10,15,16,56,15.60
2009,10,15,16,57,15.60
2009,10,15,16,58,15.60
2009,10,15,16,59,15.60
2009,10,15,17,00,15.60
2009,10,15,17,01,15.60
2009,10,15,17,03,15.40
2009,10,15,17,04,15.40
2009,10,15,17,05,15.40
2009,10,15,17,06,15.40
2009,10,15,17,08,15.30
2009,10,15,17,10,15.30
2009,10,15,17,12,15.30
2009,10,15,17,14,15.30
2009,10,15,17,15,15.30
2009,10,15,17,16,15.20
2009,10,15,17,17,15.10
2009,10,15,17,18,15.10
2009,10,15,17,19,15.10
2009,10,15,17,20,15.10
2009,10,15,17,21,15.00
2009,10,15,17,22,15.00
2009,10,15,17,23,14.90
2009,10,15,17,25,14.90
2009,10,15,17,26,14.90
2009,10,15,17,27,14.90
2009,10,15,17,28,14.90
2009,10,15,17,29,15.00
2009,10,15,17,30,15.00
2009,10,15,17,31,15.00
2009,10,15,17,32,15.00
2009,10,15,17,33,15.00
2009,10,15,17,34,15.00
2009,10,15,17,35,15.00
2009,10,15,17,36,15.00
2009,10,15,17,37,15.00
2009,10,15,17,38,15.00
2009,10,15,17,40,14.90
2009,10,15,17,41,14.90
2009,10,15,17,42,14.90
2009,10,15,17,43,14.90
2009,10,15,17,44,14.90
2009,10,15,17,45,14.90
2009,10,15,17,46,14.90
2009,10,15,17,47,14.90
2009,10,15,17,48,14.90
2009,10,15,17,49,15.00
2009,10,15,17,50,14.90
2009,10,15,17,51,14.80
2009,10,15,17,52,14.70
2009,10,15,17,53,14.70
2009,10,15,17,54,14.80
2009,10,15,17,55,14.80
2009,10,15,17,56,14.80
2009,10,15,17,57,14.80
2009,10,15,17,59,14.80
2009,10,15,18,00,14.80
2009,10,15,18,01,14.80
2009,10,15,18,02,14.80
2009,10,15,18,03,14.80
2009,10,15,18,05,14.80
2009,10,15,18,06,14.80
2009,10,15,18,08,14.80
2009,10,15,18,09,14.80
2009,10,15,18,10,14.80
2009,10,15,18,11,14.80
2009,10,15,18,12,14.90
2009,10,15,18,13,14.90
2009,10,15,18,14,14.90
2009,10,15,18,15,14.80
2009,10,15,18,16,14.80
2009,10,15,18,17,14.90
2009,10,15,18,18,14.80
2009,10,15,18,19,14.80
2009,10,15,18,20,14.80
2009,10,15,18,21,14.80
2009,10,15,18,22,14.80
2009,10,15,18,24,14.80
2009,10,15,18,25,14.90
2009,10,15,18,26,14.90
2009,10,15,18,27,14.90
2009,10,15,18,28,14.90
2009,10,15,18,29,14.90
2009,10,15,18,30,14.80
2009,10,15,18,32,14.80
2009,10,15,18,33,14.90
2009,10,15,18,34,14.80
2009,10,15,18,35,14.90
2009,10,15,18,36,14.90
2009,10,15,18,37,14.90
2009,10,15,18,38,14.90
2009,10,15,18,39,14.90
2009,10,15,18,40,14.80
2009,10,15,18,41,14.80
2009,10,15,18,42,14.80
2009,10,15,18,43,14.80
2009,10,15,18,44,14.70
2009,10,15,18,45,14.70
2009,10,15,18,46,14.80
2009,10,15,18,47,14.80
2009,10,15,18,48,14.80
2009,10,15,18,49,14.80
2009,10,15,18,50,14.70
2009,10,15,18,51,14.60
2009,10,15,18,52,14.60
2009,10,15,18,53,14.50
2009,10,15,18,54,14.40
2009,10,15,18,55,14.30
2009,10,15,18,56,14.30
2009,10,15,18,57,14.20
2009,10,15,18,58,14.20
2009,10,15,18,59,14.20
2009,10,15,19,00,14.20
2009,10,15,19,02,14.20
2009,10,15,19,03,14.20
2009,10,15,19,04,14.20
2009,10,15,19,05,14.20
2009,10,15,19,06,14.20
2009,10,15,19,07,14.20
2009,10,15,19,08,14.20
2009,10,15,19,09,14.10
2009,10,15,19,10,14.10
2009,10,15,19,11,14.20
2009,10,15,19,12,14.20
2009,10,15,19,13,14.20
2009,10,15,19,14,14.20
2009,10,15,19,15,14.20
2009,10,15,19,16,14.20
2009,10,15,19,17,14.10
2009,10,15,19,18,14.10
2009,10,15,19,19,14.10
2009,10,15,19,20,14.10
2009,10,15,19,21,14.10
2009,10,15,19,22,14.10
2009,10,15,19,23,14.00
2009,10,15,19,24,14.00
2009,10,15,19,25,14.00
2009,10,15,19,26,13.90
2009,10,15,19,27,13.90
2009,10,15,19,28,13.90
2009,10,15,19,29,13.90
2009,10,15,19,30,13.90
2009,10,15,19,31,13.90
2009,10,15,19,32,14.00
2009,10,15,19,33,14.00
2009,10,15,19,34,14.10
2009,10,15,19,35,14.20
2009,10,15,19,36,14.20
2009,10,15,19,37,14.20
2009,10,15,19,38,14.20
2009,10,15,19,39,14.30
2009,10,15,19,40,14.30
2009,10,15,19,41,14.30
2009,10,15,19,42,14.20
2009,10,15,19,43,14.20